STARLINK-2248 (48591 NORAD) Tracking and Keplerian Element Data

This shows tracking and keplerian element data for the satellite.

Feedback or suggestion? Click here.




ElementValue
Catalog48591
NameSTARLINK-2248
Epoch Orbit2343
Epoch Day287.98881968
Epoch Year2021
RAAN144.3844
Inclination53.0524
Eccentricity0.0001945
Argument of Perigee65.046
Mean Anonmoly295.0731
Mean Motion15.06381668
Decay Rate-7.51E-06
L11 48591U 21041AQ 21287.98881968 -.00000751 00000-0 -31552-4 0 9997
L22 48591 53.0524 144.3844 0001945 65.0460 295.0731 15.06381668 23439

Live tracking and technical data element details for STARLINK-2248 (NORAD 48591). STARLINK-2248 can be tracked NOW for your location showing map with azimuth and elevation plus other details from your city location.

Track the satellite on the map from your city or location and see movement details for azimuth, elevation, latitude, longitude, range, height, and movement on the map or in text.







IsCatalogInMostPopularTable: catalog: 48591, numindb: 43
Update: records affected: 1



GetName: 48591 STARLINK-2248

Hit Count: updated at: Tue, 19 Oct 2021 09:03:00 GMT